Regional Weather Roundup
Issued by NWS

Home | Current Version | Previous Version | Text Only | Print | Product List | Glossary Off
Versions: 1 2 3 4 5 6 7 8 9 10 11 12 13 14 15 16 17 18 19 20 21 22 23 24 25 26 27 28 29 30 31 32 33 34 35 36 37 38 39 40 41 42 43 44 45 46 47 48 49 50

000
ASUS43 KMKX 251921
RWRWI

WISCONSIN REGIONAL WEATHER ROUNDUP
NATIONAL WEATHER SERVICE MILWAUKEE/SULLIVAN WI
100 PM CST SAT FEB 25 2017

NOTE: "FAIR" INDICATES FEW OR NO CLOUDS BELOW 12,000 FEET WITH NO
SIGNIFICANT WEATHER AND/OR OBSTRUCTIONS TO VISIBILITY.

WIZ001-002-006>008-014>016-023>028-252000-
NORTHWEST WISCONSIN

CITY           SKY/WX    TMP DP  RH WIND       PRES   REMARKS
SUPERIOR ARPT  MOSUNNY   26   8  45 NW9G17    29.85F WCI  17
ASHLAND        SUNNY     25   8  48 W17       29.81S WCI  12
HAYWARD        SUNNY     24   2  38 W9G16     29.82S WCI  14
SIREN          MOSUNNY   28   6  39 N10G17    29.87S WCI  18
CUMBERLAND     PTSUNNY   25   5  42 NW17G24   29.85S WCI  11
RICE LAKE      SUNNY     25   4  40 W12G17    29.88S WCI  15
CHETEK         SUNNY     25   6  45 W8G16     29.87S WCI  16
LADYSMITH      SUNNY     24   4  43 NW15G23   29.83S WCI  11
EAU CLAIRE     SUNNY     23   6  48 W12       29.88S WCI  12
MENOMONIE      SUNNY     25   6  44 W14       29.90F WCI  13
NEW RICHMOND   SUNNY     28   8  43 NW13G21   29.89F WCI  18
OSCEOLA        SUNNY     29   8  40 NW14G20   29.92F WCI  18
$$

WIZ003>005-009-010-017-018-252000-
NORTH CENTRAL WISCONSIN

CITY           SKY/WX    TMP DP  RH WIND       PRES   REMARKS
MANITOWISH WTR LGT SNOW  14   9  79 W13       29.72S WCI   0
ARBOR VITAE    FLURRIES  17  10  73 NW12G21     N/A  WCI   4
WOODRUFF       FLURRIES  17  10  73 NW12G21     N/A  WCI   4
RHINELANDER    LGT SNOW  18  10  71 W18G28    29.72R WCI   2
EAGLE RIVER    LGT SNOW  17   9  72 W15G21    29.69R WCI   2
LAND O LAKES   LGT SNOW  18  12  78 W12G17    29.69R WCI   6
PHILLIPS       MOSUNNY   18   6  60 W8        29.76S WCI   8
TOMAHAWK       CLOUDY    17   8  69 W13       29.77R WCI   3
MEDFORD        MOSUNNY   17   6  60 W16       29.78S WCI   2
MERRILL        NOT AVBL
$$

WIZ029-030-035-036-043>047-252000-
CENTRAL WISCONSIN

CITY           SKY/WX    TMP DP  RH WIND       PRES   REMARKS
WAUSAU         CLOUDY    17   8  67 W16       29.78R WCI   2
MOSINEE        CLOUDY    16  10  79 W17       29.80R WCI   0
MARSHFIELD     MOSUNNY   18   5  57 W18G24    29.80S WCI   2
STEVENS POINT  PTSUNNY   16   6  65 W12G21    29.81S WCI   2
WAUPACA        CLOUDY    23  11  58 W15G22    29.81R WCI  10
WAUTOMA        PTSUNNY   21  11  65 NW20      29.84  WCI   6
WISC RAPIDS    MOSUNNY   19   8  62 NW14      29.84R WCI   6
CAMP DOUGLAS   MOSUNNY   21   9  58 W15       29.87R WCI   8
$$

WIZ011>013-019>022-031-037>040-048>050-252000-
NORTHEAST WISCONSIN

CITY           SKY/WX    TMP DP  RH WIND       PRES   REMARKS
ANTIGO         CLOUDY    17  10  71 NW17G23   29.72R WCI   2
SHAWANO        CLOUDY    24  11  59 CALM      29.77R
OCONTO         CLOUDY    24  13  64 W12G28    29.73R WCI  13
STURGEON BAY   FLURRIES  24  16  71 W16G24    29.70R WCI  11
GREEN BAY      CLOUDY    23  13  65 W16G28    29.76R WCI  10
MANITOWOC      PTSUNNY   24  14  65 W18G26    29.76R WCI  10
APPLETON       CLOUDY    19  10  68 NW15G21   29.77R WCI   5
CLINTONVILLE   CLOUDY    21  10  63 NW17G25   29.78R WCI   7
OSHKOSH        CLOUDY    20  11  68 NW18G24   29.79R WCI   5
$$

WIZ032>034-041-042-053>061-252000-
SOUTHWEST WISCONSIN

CITY           SKY/WX    TMP DP  RH WIND       PRES   REMARKS
LA CROSSE      SUNNY     25  10  53 W13       29.94R WCI  14
SPARTA         SUNNY     23  10  56 NW12G23   29.90S WCI  12
VIROQUA        SUNNY     21   9  58 W10       29.88R WCI  10
BOSCOBEL       SUNNY     24   9  52 W9G20     29.94R WCI  14
PRAIRIE DU CHI SUNNY     24  10  54 W14       29.96S WCI  12
PLATTEVILLE    MOSUNNY   23  15  73 W8        29.91R WCI  13
$$

WIZ056-057-062-063-064-067-068-252000-
SOUTH CENTRAL WISCONSIN

CITY           SKY/WX    TMP DP  RH WIND       PRES   REMARKS
REEDSBURG      PTSUNNY   21  10  61 NW9G18    29.87S WCI  11
BARABOO/DELLS  CLOUDY    20  11  67 W8        29.86S WCI  10
LONE ROCK      MOSUNNY   24  12  60 W16G23    29.90S WCI  11
MINERAL POINT  PTSUNNY   25  18  74 W6        29.88R WCI  18
MADISON        PTSUNNY   20  11  68 W12G20    29.86S WCI   8
MIDDLETON      PTSUNNY   22  15  72 NW7       29.87S WCI  14
WATERTOWN      FLURRIES  18  11  76 W12       29.85R WCI   5
MONROE         PTSUNNY   23  14  68 W17G25    29.86R WCI   9
JANESVILLE     CLOUDY    25  16  68 NW12G17   29.86R WCI  14
$$

WIZ051-052-058>065-066-070>072-252000-
SOUTHEAST WISCONSIN

CITY           SKY/WX    TMP DP  RH WIND       PRES   REMARKS
MILWAUKEE      FLURRIES  21   9  59 W15G26    29.83R WCI   8
WAUKESHA       CLOUDY    16   9  73 W17G23    29.83S WCI   0
MILWAUKEE/TIMM CLOUDY    19   9  63 W17G28    29.83R WCI   4
RACINE         FLURRIES  20  10  65 NW13G25   29.86R WCI   7
KENOSHA        LGT SNOW  21  12  68 W21       29.84R WCI   5
FOND DU LAC    MIX PCPN  20   9  62 W18       29.81R WCI   5
SHEBOYGAN      MIX PCPN  21  11  65 W16G28    29.78R WCI   7
WEST BEND      FLURRIES  19  14  79 W6        29.80R WCI  11
JUNEAU         CLOUDY    17  10  76 W6        29.84S WCI   8
$$

LSZ147-162-252000-
LAKE SUPERIOR

STATION/POSITION TIME  TEMP    WIND        PRES    WAVE
                       AIR SEA DIR/SP/G            HT/PER
                 (UTC) (F)     (DEG/KT/KT) (MB)    (FT/S)
DEVILS ISLAND    1900   22     270/ 18/ 22 1009.6F
PORT WING        1830   20     260/ 10/ 17 1010.5F
SAXON HARBOR     1840   21     280/ 11/ 20 1009.5R
$$

LMZ867-665-643>646-252000-
LAKE MICHIGAN

STATION/POSITION TIME  TEMP    WIND        PRES    WAVE
                       AIR SEA DIR/SP/G            HT/PER
                 (UTC) (F)     (DEG/KT/KT) (MB)    (FT/S)
CHAMBERS ISLAND  1840   25     280/  1/  2 1004.7R
NORTHPORT PIER   1813   23     290/  1/  2 1004.4R
SISTER BAY       1820   25        CALM       N/A
KEWAUNEE LAKESHO 1900   23     290/ 14/ 25 1006.2
SHEBOYGAN LAKESH 1900   20     290/ 14/ 17 1009.3R
PORT WASHINGTON  1840   21     290/ 10/ 16 1010.5R
MILWAUKEE LAKESH 1900   19     280/ 17/ 22   N/A
KENOSHA   LAKESH 1900   20     300/ 15/ 22 1011.2
$$

TC  - TEMPERATURE IN CELSIUS
VSB - VISIBILITY IN STATUTE MILES
WCI - WIND CHILL INDEX
HX  - HEAT INDEX





USA.gov is the U.S. government's official web portal to all federal, state and local government web resources and services.